Change the Weather History Date:

Wednesday, August 7, 2013

  Actual Average Record
Temperature  
Mean Temperature 78 °F -  
Max Temperature 85 °F 85 °F 98 °F (1977)
Min Temperature 71 °F 67 °F 54 °F (1957)
Cooling Degree Days 13    
Growing Degree Days 28 (Base 50)    
Moisture  
Dew Point 71 °F    
Average Humidity 80    
Maximum Humidity 98    
Minimum Humidity 62    
Precipitation  
Precipitation 0.00 in - - ()
Sea Level Pressure  
Sea Level Pressure 30.05 in    
Wind  
Wind Speed 2 mph (South)    
Max Wind Speed 10 mph    
Max Gust Speed 18 mph    
Visibility 10 miles    
Events      
Averages and records for this station are not official NWS values.
T = Trace of Precipitation, MM = Missing Value Source: NWS Daily Summary

Daily Weather History Graph

Daily Weather History Graph

Search for Another Location

Airport or City:

Trip Planner

Search our weather history database for the weather conditions in past years. The results will help you decide how hot, cold, wet, or windy it might be!

Date:

Astronomy

Aug. 07, 2013 Rise Set
Actual Time 6:14 AM EDT 8:12 PM EDT
Civil Twilight 5:44 AM EDT 8:41 PM EDT
Nautical Twilight 5:09 AM EDT 9:16 PM EDT
Astronomical Twilight 4:30 AM EDT 9:54 PM EDT
Moon 6:59 AM EDT 8:19 PM EDT
Length of Visible Light 14h 56m
Length of Day
13h 58m
New Moon, 1% of the Moon is Illuminated
Aug 7
New Moon
Aug 14
First Quarter
Aug 20
Full
Aug 28
Last Quarter
Sep 5
New

Hourly Weather History & Observations

Time (EDT) Temp. Heat Index Dew Point Humidity Pressure Visibility Wind Dir Wind Speed Gust Speed Precip Events Conditions
12:05 AM 72.0 °F - 68.5 °F 89% 30.08 in 10.0 mi Calm Calm - N/A   Overcast
12:25 AM 71.8 °F - 68.9 °F 91% 30.08 in 10.0 mi Calm Calm - N/A   Overcast
12:45 AM 71.2 °F - 68.9 °F 92% 30.08 in 10.0 mi Calm Calm - N/A   Overcast
1:05 AM 71.6 °F - 68.9 °F 91% 30.08 in 10.0 mi Calm Calm - N/A   Overcast
1:25 AM 71.1 °F - 69.1 °F 93% 30.08 in 10.0 mi Calm Calm - N/A   Overcast
1:45 AM 71.2 °F - 69.3 °F 93% 30.07 in 10.0 mi Calm Calm - N/A   Overcast
2:05 AM 71.8 °F - 69.1 °F 91% 30.07 in 10.0 mi Calm Calm - N/A   Overcast
2:25 AM 71.6 °F - 69.3 °F 92% 30.07 in 10.0 mi Calm Calm - N/A   Overcast
2:45 AM 71.2 °F - 69.4 °F 94% 30.07 in 10.0 mi Calm Calm - N/A   Overcast
3:05 AM 71.6 °F - 69.4 °F 93% 30.07 in 10.0 mi Calm Calm - N/A   Overcast
3:25 AM 71.6 °F - 69.4 °F 93% 30.07 in 10.0 mi Calm Calm - N/A   Overcast
3:40 AM 71.8 °F - 69.3 °F 92% 30.07 in 10.0 mi SE 3.5 mph - N/A   Overcast
4:05 AM 72.0 °F - 69.4 °F 92% 30.07 in 10.0 mi Calm Calm - N/A   Overcast
4:25 AM 72.0 °F - 69.4 °F 92% 30.07 in 10.0 mi Calm Calm - N/A   Overcast
4:45 AM 72.1 °F - 69.4 °F 91% 30.07 in 10.0 mi Calm Calm - N/A   Overcast
5:05 AM 72.5 °F - 69.4 °F 90% 30.07 in 10.0 mi Calm Calm - N/A   Overcast
5:25 AM 72.5 °F - 69.4 °F 90% 30.07 in 10.0 mi Calm Calm - N/A   Overcast
5:45 AM 72.3 °F - 69.6 °F 91% 30.07 in 10.0 mi Calm Calm - N/A   Overcast
6:05 AM 71.8 °F - 70.2 °F 95% 30.07 in 10.0 mi Calm Calm - N/A   Overcast
6:25 AM 71.6 °F - 70.3 °F 96% 30.07 in 10.0 mi Calm Calm - N/A   Overcast
6:45 AM 71.2 °F - 70.5 °F 98% 30.07 in 10.0 mi Calm Calm - N/A   Overcast
7:05 AM 71.6 °F - 70.7 °F 97% 30.08 in 10.0 mi Calm Calm - N/A   Overcast
7:25 AM 72.0 °F - 70.7 °F 96% 30.07 in 10.0 mi Calm Calm - N/A   Overcast
7:45 AM 72.5 °F - 70.5 °F 93% 30.08 in 10.0 mi SSE 3.5 mph - N/A   Overcast
8:05 AM 72.7 °F - 70.3 °F 92% 30.07 in 10.0 mi Calm Calm - N/A   Overcast
8:20 AM 72.7 °F - 70.5 °F 93% 30.08 in 10.0 mi Calm Calm - N/A   Overcast
8:45 AM 72.9 °F - 70.7 °F 93% 30.08 in 10.0 mi Calm Calm - N/A   Overcast
9:05 AM 73.4 °F - 70.7 °F 91% 30.07 in 10.0 mi Calm Calm - N/A   Overcast
9:25 AM 73.8 °F - 70.5 °F 90% 30.07 in 10.0 mi Calm Calm - N/A   Overcast
9:45 AM 74.3 °F - 70.7 °F 88% 30.07 in 10.0 mi South 4.6 mph - N/A   Overcast
10:05 AM 74.3 °F - 70.7 °F 88% 30.07 in 10.0 mi South 3.5 mph - N/A   Overcast
10:25 AM 74.7 °F - 70.9 °F 88% 30.08 in 10.0 mi South 3.5 mph - N/A   Overcast
10:45 AM 74.8 °F - 70.9 °F 87% 30.08 in 10.0 mi Calm Calm - N/A   Overcast
11:05 AM 75.2 °F - 70.7 °F 86% 30.08 in 10.0 mi Calm Calm - N/A   Overcast
11:25 AM 75.7 °F - 71.2 °F 86% 30.08 in 10.0 mi South 3.5 mph - N/A   Overcast
11:45 AM 77.0 °F - 71.1 °F 82% 30.07 in 10.0 mi Calm Calm - N/A   Overcast
12:05 PM 78.8 °F - 72.0 °F 79% 30.07 in 10.0 mi SSE 3.5 mph - N/A   Overcast
12:25 PM 79.7 °F - 71.1 °F 75% 30.07 in 10.0 mi SSW 3.5 mph - N/A   Mostly Cloudy
12:45 PM 80.6 °F 84.4 °F 71.4 °F 73% 30.07 in 10.0 mi South 5.8 mph - N/A   Mostly Cloudy
1:05 PM 81.1 °F 85.4 °F 71.6 °F 73% 30.06 in 10.0 mi South 3.5 mph - N/A   Mostly Cloudy
1:25 PM 82.4 °F 87.7 °F 72.5 °F 72% 30.05 in 10.0 mi South 3.5 mph - N/A   Mostly Cloudy
1:45 PM 82.8 °F 88.2 °F 72.3 °F 71% 30.04 in 10.0 mi Calm Calm - N/A   Mostly Cloudy
2:05 PM 83.5 °F 88.8 °F 72.0 °F 68% 30.05 in 10.0 mi SSE 6.9 mph - N/A   Mostly Cloudy
2:25 PM 83.7 °F 89.4 °F 72.3 °F 69% 30.04 in 10.0 mi South 3.5 mph - N/A   Mostly Cloudy
2:45 PM 84.9 °F 90.7 °F 72.0 °F 65% 30.04 in 10.0 mi South 5.8 mph - N/A   Mostly Cloudy
3:05 PM 84.9 °F 91.1 °F 72.3 °F 66% 30.03 in 10.0 mi SSE 8.1 mph - N/A   Mostly Cloudy
3:25 PM 85.5 °F 91.8 °F 72.3 °F 65% 30.02 in 10.0 mi SSE 6.9 mph - N/A   Mostly Cloudy
3:45 PM 85.1 °F 90.8 °F 71.8 °F 64% 30.02 in 10.0 mi South 5.8 mph - N/A   Overcast
4:05 PM 85.1 °F 90.8 °F 71.8 °F 64% 30.02 in 10.0 mi South 5.8 mph - N/A   Overcast
4:25 PM 85.5 °F 91.5 °F 72.1 °F 64% 30.01 in 10.0 mi SSW 4.6 mph - N/A   Mostly Cloudy
4:45 PM 85.5 °F 91.1 °F 71.6 °F 63% 30.00 in 10.0 mi SSE 10.4 mph 18.4 mph N/A   Mostly Cloudy
5:05 PM 85.5 °F 90.8 °F 71.1 °F 62% 30.01 in 10.0 mi South 5.8 mph - N/A   Mostly Cloudy
5:25 PM 85.5 °F 90.8 °F 71.2 °F 62% 30.01 in 10.0 mi South 6.9 mph - N/A   Mostly Cloudy
5:45 PM 85.1 °F 90.4 °F 71.1 °F 63% 30.02 in 10.0 mi SSW 5.8 mph - N/A   Overcast
6:25 PM 84.4 °F 89.7 °F 71.4 °F 65% 30.01 in 10.0 mi South 8.1 mph - N/A   Mostly Cloudy
6:40 PM 84.0 °F 88.7 °F 70.7 °F 64% 30.00 in 10.0 mi South 8.1 mph - N/A   Overcast
7:05 PM 83.3 °F 88.2 °F 71.2 °F 67% 30.00 in 10.0 mi SSE 3.5 mph - N/A   Overcast
7:25 PM 83.3 °F 87.9 °F 71.1 °F 66% 30.01 in 10.0 mi South 4.6 mph - N/A   Overcast
7:45 PM 82.9 °F 87.2 °F 70.7 °F 66% 30.01 in 10.0 mi South 3.5 mph - N/A   Mostly Cloudy
8:05 PM 82.8 °F 87.2 °F 70.7 °F 67% 30.01 in 10.0 mi Calm Calm - N/A   Mostly Cloudy
8:25 PM 82.6 °F 86.6 °F 70.3 °F 66% 30.01 in 10.0 mi Calm Calm - N/A   Mostly Cloudy
8:40 PM 82.4 °F 86.3 °F 70.0 °F 66% 30.02 in 10.0 mi Calm Calm - N/A   Scattered Clouds
9:05 PM 82.4 °F 86.3 °F 70.2 °F 66% 30.03 in 10.0 mi Calm Calm - N/A   Mostly Cloudy
9:25 PM 82.2 °F 86.2 °F 70.2 °F 67% 30.03 in 10.0 mi Calm Calm - N/A   Overcast
9:45 PM 80.8 °F 84.6 °F 71.1 °F 72% 30.03 in 10.0 mi SE 4.6 mph - N/A   Overcast
10:05 PM 80.6 °F 84.6 °F 71.6 °F 74% 30.03 in 10.0 mi SSE 4.6 mph - N/A   Overcast
10:25 PM 80.2 °F 84.0 °F 71.8 °F 75% 30.03 in 10.0 mi Calm Calm - N/A   Overcast
10:45 PM 80.1 °F 84.1 °F 72.5 °F 78% 30.03 in 10.0 mi SSE 3.5 mph - N/A   Overcast
11:00 PM 79.9 °F - 72.7 °F 79% 30.03 in 10.0 mi South 3.5 mph - N/A   Mostly Cloudy
11:25 PM 80.2 °F 84.7 °F 73.4 °F 80% 30.03 in 10.0 mi South 3.5 mph - N/A   Overcast
11:45 PM 80.2 °F 84.7 °F 73.4 °F 80% 30.03 in 10.0 mi South 3.5 mph - N/A   Mostly Cloudy